Zurück zum Katalog

ORBCOMM FM 36 DEB

AktivLEO
NORAD 56437·DEBRIS·🇺🇸 United States

Gestartet Dec 4, 1999 von Cape Canaveral Space Force Station

Loading…

Nächste Überflüge (nächste 24 Stunden)

TLE

AktuellSource: Space-Track

Epoche: Sep 14, 2026, 11:58 UTC

1 56437U 99065N   26257.49885044  .00000240  00000-0  12109-3 0  9990
2 56437  44.9399  70.4506 0017157 146.1582 214.0364 14.39593796184611

Verfolge ORBCOMM FM 36 DEB in Echtzeit mit AllMySat

Download on the App Store